Accueil
METAR-TAF:

METAR-TAF

Aéroports :

Aéroport de Troyes - Barberey

Troyes, France

latitude: 48-20N, longitude: 004-01E, altitude: 118 m

Observation

Le bulletin a été fait il y a 25 minutes, à 16:30 UTC
Vent 2 kt de nord
Température 0°C
Humidité 74%
Pression 1021 hPa
Visibilité: 9000 m

METAR: LFQB 211630Z AUTO 36002KT 9000 NSC M00/M04 Q1021

Heure: 17:55 (16:55 UTC)


TAF: absent

Observations et prévisions météorologiques de plus de 4000 aéroports (messages METAR et TAF).

Les stations disponibles sont représentées par des disques jaunes et rouges sur la carte.

Passer la souris dessus pour voir le nom de la station.

Cliquer dessus pour voir les observations et prévisions météorologiques.

Pour changer de carte: cliquez sur les boutons verts avec une croix noire pour zoomer, sur le bouton vert avec un tiret pour effectuer un zoom arrière, ou sur les flèches vertes pour les cartes adjacentes.


METAR-TAF: